Find Telstar 18 Vantage

NORAD ID: 43611 Int'l Des: 2018-069 Owner: TSKY Country: CA operational
HEOCIRCULARGSOGEO

Current View

Loading 3D Globe...

About Telstar 18 Vantage

Telstar 18 Vantage (NORAD 43611) is a satellite launched Sep 10, 2018 by TSKY of CA. It operates in HEO, CIRCULAR, GSO, GEO orbit with a mass of 7060.00 kg.

Upcoming Passes

Passes for default location (London). Set your location on the main map for personalized predictions.

Altitude History

Loading altitude history...

Two-Line Element Set

1 43611U 18069A 26194.52037462 -.00000298 00000-0 00000+0 0 9999
2 43611 0.0151 318.0250 0001664 158.6111 140.0899 1.00269998 28907
Epoch: Jul 13, 2026 • Age: 29 hours

Current Status

Altitude 35792.7 km
Apogee / Perigee N/A
Velocity 3.07 km/s
Sub-Earth Point -0.01°S, 137.99°E
Launch Date Sep 10, 2018
Age 7.8 years
Type other

Technical Details

Classification Payload
Mass 7060.00 kg
Dry Mass 2000.00 kg
Total Mass 7060.00 kg
Length 8.90 m
Diameter 6.90 m
Span 26.10 m
Shape Box + 2 panels
Manufacturer SSLMAX
Bus Type LS-1300
Phase Status In Orbit
Owner/State TSKY/CA

Most Searched